Regional Weather Roundup
Issued by NWS Upton, NY

Current Version | Previous Version | Text Only | Print | Product List | Glossary On
Versions: 1 2 3 4 5 6 7 8 9 10 11 12 13 14 15 16 17 18 19 20 21 22 23 24 25 26 27
000
ASUS41 KOKX 292108
RWROKX

REGIONAL WEATHER ROUNDUP
NATIONAL WEATHER SERVICE NEW YORK NY
500 PM EDT SAT APR 29 2017

NOTE: "FAIR" INDICATES FEW OR NO CLOUDS BELOW 12,000 FEET WITH NO
SIGNIFICANT WEATHER AND/OR OBSTRUCTIONS TO VISIBILITY.

NYZ071-072-176-178-NJZ106-104-292200-
NEW YORK CITY METRO AREA

CITY           SKY/WX    TMP DP  RH WIND       PRES   REMARKS
Central Park   CLOUDY    82  58  43 W9G23     30.01R
Wall St Helipt CLOUDY    82  57  42 VRB7      29.99R
Bronx Bot Gard   N/A     82  57  42 W9        29.99S
LaGuardia APRT PTSUNNY   85  56  37 W25G40    29.97R
Kennedy INTL   PTSUNNY   85  60  42 W24G31    29.99R
Breezy Point     N/A     75 N/A N/A W14G22      N/A
Newark/Liberty CLOUDY    85  58  39 W23G37    29.99R
Teterboro      CLOUDY    81  59  47 W25G35    29.97R
$$

NYZ177-179-078>081-292200-
LONG ISLAND NEW YORK

CITY           SKY/WX    TMP DP  RH WIND       PRES   REMARKS
Jones Beach      N/A     70 N/A N/A W13         N/A
Matinecock PT    N/A     72 N/A N/A W24         N/A
Farmingdale    MOSUNNY   84  58  40 W24G35    29.96R
MacArthur/ISP  PTSUNNY   82  63  52 SW9       29.95R
Shirley        NOT AVBL
Mt Sinai Harb    N/A     81 N/A N/A W7G13       N/A
Westhampton    CLOUDY    77  60  55 W17       29.97R
East Hampton     N/A     76  62  61 W12G17    29.93S
Montauk        NOT AVBL
$$

NYZ052-065-067-292200-
HUDSON VALLEY

CITY           SKY/WX    TMP DP  RH WIND       PRES   REMARKS
White Plains   PTSUNNY   83  57  41 W24G33    29.97R
Larchmont Harb   N/A     82 N/A N/A W18G24      N/A
Croton O-T Hud   N/A     75 N/A N/A NW23        N/A
Newburgh       PTSUNNY   79  61  53 NW25G33   30.01R
Montgomery     PTSUNNY   79  57  46 W21G30    29.99R
Poughkeepsie   CLOUDY    79  56  45 NW12      29.97R
Albany         CLOUDY    66  48  52 W13G25    30.05R
$$

NJZ001-105-106-008-010-013-015-019>022-104-292200-
NEW JERSEY

CITY           SKY/WX    TMP DP  RH WIND       PRES   REMARKS
Newark/Liberty CLOUDY    85  58  39 W23G37    29.99R
Teterboro      CLOUDY    81  59  47 W25G35    29.97R
Caldwell       PTSUNNY   82  58  43 NW21G28   30.00R
Somerville     CLOUDY    83  60  45 NW20G25   30.00R
Linden           N/A     83  57  41 NW22G33   30.00R
Perth Amboy      N/A     81 N/A N/A NW18G25     N/A
Sussex         CLOUDY    79  58  48 W15G24    30.03R
Andover          N/A     79  58  48 VRB7G18   30.03S
Trenton        MOSUNNY   83  61  47 NW13G22   30.02R
Millville      SUNNY     88  64  44 NW15      30.03R
Atlantic City  MOSUNNY   89  59  36 W16G29    30.01R
Wrightstown    CLOUDY    84  60  44 W15       29.99R
Toms River     MOSUNNY   86  59  39 W17G31    30.01S
Belmar         MOSUNNY   85  60  42 W21G29    30.01R
$$

PAZ047>061-062-071-292200-
EASTERN PENNSYLVANIA

CITY           SKY/WX    TMP DP  RH WIND       PRES   REMARKS
Philadelphia   CLOUDY    85  57  38 NW15G28   30.03S
Allentown      CLOUDY    80  60  50 NW15G25   30.04F
Scranton       LGT RAIN  72  58  61 W9G25     30.04F
$$

CTZ002-004>006-009-010-012-RIZ004-006-007-MAZ004-011-015-292200-
SOUTHERN NEW ENGLAND
 IN CT

CITY           SKY/WX    TMP DP  RH WIND       PRES   REMARKS
Bradley INTL   CLOUDY    82  55  39 NW21G26   29.91R
Hartford       MOSUNNY   82  59  45 W12G25    29.91R
Danbury        PTSUNNY   80  58  46 W16G28    29.97R
Wtrbury/Oxford PTSUNNY   81  55  41 W12G23    29.99R
Bridgeport     MOSUNNY   86  59  39 W23G33    29.93R
Meriden        PTSUNNY   84  58  40 W9G24     29.92S
New Haven      PTSUNNY   80  57  45 W12G23    29.93R
Chester          N/A     84  59  42 W13G22    29.92S
Groton         PTSUNNY   78  60  53 W17G26    29.89R
Wilimantic     PTSUNNY   85  58  39 W9G24     29.90R

 IN RI

CITY           SKY/WX    TMP DP  RH WIND       PRES   REMARKS
Providence     PTSUNNY   86  59  39 W20G31    29.87R
Block Island   CLOUDY    64  57  78 SW20G29   29.92R
Westerly       MOSUNNY   73  58  59 SW14G22   29.90S
 IN MA

CITY           SKY/WX    TMP DP  RH WIND       PRES   REMARKS
Boston         CLOUDY    83  56  39 W17G30    29.83R
Worcester      PTSUNNY   75  51  43 W23G33    29.92R
Westfield      CLOUDY    76  54  46 NW18G24   29.95R
Provincetown   CLOUDY    67  59  75 SW18G24   29.84R
Nantucket      PTSUNNY   61  56  83 W23G29    29.89R
$$

ANZ330-335-338-340-345-350-353-355-292200-
COASTAL MARINE OBSERVATIONS


STATION/POSITION TIME  SKY/WX   TEMP    WIND        PRES    VSBY  WAVE
                                AIR SEA DIR/SP/G                  HT/PER
                 (UTC)          (F)     (DEG/KT/KT) (MB)    (MI)  (FT/S)
NY HARB ENTRANCE 1950            60 56  180/  6/  8 1015.6          3/ 7
20 S FIRE ISLAND 2050            55 50  230/ 10/ 12 1015.1          4/ 8
GREAT SOUTH BAY  2030            62 60  230/ 12/ 14   N/A
23 SSW MONTAUK P 1950            54 48              1014.4          4/ 8
15 E BARNEGAT LI 2030               56                N/A           4/ 7
HUDSON CANYON    1950            53 50  220/ 12/ 12 1016.5          4/ 7
KINGS POINT      2048            78 54  310/ 16/ 19 1014.7
EXECUTION ROCKS  NOT AVBL
CENTRAL LI SOUND 2045            60     240/ 14/ 16   N/A
EASTERN LI SOUND NOT AVBL
ROBBINS REEF     2048            81     290/ 29/ 37 1015.3
$$


>>>>>>>>>>>>>>>>>>>>>>>>>>>> KEY <<<<<<<<<<<<<<<<<<<<<<<<<<<
>                                                          <
>     SKY/WX - Sky Condition/Present Weather               <
>     TMP    - Temperature in Fahrenheit                   <
>     DP     - Dew Point in Fahrenheit                     <
>     RH     - Relative Humidity in Percent                <
>     WIND   - Direction (from) and Speed in MPH           <
>     PRES   - Mean Sea Level Pressure (inches of Hg)      <
>     WCI    - Wind Chill Index                            <
>     VSB    - VISIBILITY IN MILES                         <
>     HX     - HEAT INDEX                                  <
>     TC     - TEMPERATURE IN CELSIUS                      <
>     VRB    - VARIABLE WIND DIRECTION                     <
>                                                          <
>>>>>>>>>>>>>>>>>>>>>>>>>>>> KEY <<<<<<<<<<<<<<<<<<<<<<<<<<<




USA.gov is the U.S. government's official web portal to all federal, state and local government web resources and services.